Tracking 21076 objects as of 10-Aug-2020
HD Live streaming from Space Station
objects crossing your sky now
Track the most recent launched group of Starlink satellites

NAVSTAR 15 (USA 42)

Track NAVSTAR 15 (USA 42) now!
NAVSTAR 15 (USA 42) is classified as:


NORAD ID: 20185
Int'l Code: 1989-064A
Perigee: 21,513.8 km
Apogee: 21,585.5 km
Inclination: 54.1 °
Period: 773.8 minutes
Semi major axis: 27920 km
RCS: 1.9952 m2 (large)
Launch date: August 18, 1989
Source: United States (US)
Launch site: AIR FORCE EASTERN TEST RANGE (AFETR)
aabbcc
Your satellite tracking list
Your tracking list is empty




NASA's NSSDC Master Catalog

Two Line Element Set (TLE):
1 20185U 89064A   20221.47744315 +.00000021 +00000-0 +00000-0 0  9998
2 20185 054.0583 162.5879 0012853 293.3293 248.9308 01.86086329216399
Source of the keplerian elements: AFSPC